| time (UTC) | temp F | wind direction | speed MPH | gust MPH | rain 1hr in | rain 24hr in | rain mn in | humidity % | barometer mb |
| 20260901024055 | 60 | 250 | 7.0 | 15.0 | 0.00 | 0.16 | 0.00 | 85 | 1015.4 |
| 20260901023555 | 60 | 253 | 7.0 | 15.0 | 0.00 | 0.16 | 0.00 | 85 | 1015.4 |
| 20260901023104 | 60 | 288 | 6.0 | 14.0 | 0.00 | 0.16 | 0.00 | 85 | 1015.4 |
| 20260901022555 | 60 | 266 | 5.0 | 15.0 | 0.00 | 0.16 | 0.00 | 85 | 1015.4 |
| 20260901022055 | 60 | 258 | 8.0 | 15.0 | 0.00 | 0.16 | 0.00 | 85 | 1015.4 |
| 20260901021610 | 60 | 236 | 7.0 | 15.0 | 0.00 | 0.16 | 0.00 | 85 | 1015.3 |
| 20260901021055 | 60 | 265 | 6.0 | 15.0 | 0.00 | 0.16 | 0.00 | 85 | 1015.3 |
| 20260901020555 | 60 | 262 | 6.0 | 17.0 | 0.00 | 0.16 | 0.00 | 85 | 1015.3 |
| 20260901020119 | 60 | 251 | 6.0 | 17.0 | 0.00 | 0.16 | 0.00 | 85 | 1015.2 |
| 20260901015558 | 60 | 294 | 8.0 | 16.0 | 0.00 | 0.16 | 0.00 | 85 | 1015.3 |
| 20260901015058 | 60 | 265 | 7.0 | 16.0 | 0.00 | 0.16 | 0.00 | 85 | 1015.2 |
| 20260901014601 | 60 | 265 | 7.0 | 16.0 | 0.00 | 0.16 | 0.00 | 85 | 1015.2 |
| 20260901014058 | 60 | 238 | 6.0 | 13.0 | 0.00 | 0.16 | 0.00 | 85 | 1015.2 |
| 20260901013558 | 60 | 263 | 5.0 | 14.0 | 0.00 | 0.16 | 0.00 | 85 | 1015.2 |
| 20260901013115 | 60 | 257 | 6.0 | 14.0 | 0.00 | 0.16 | 0.00 | 85 | 1015.2 |
| 20260901012557 | 60 | 253 | 5.0 | 14.0 | 0.00 | 0.16 | 0.00 | 85 | 1015.2 |
| 20260901012058 | 60 | 248 | 6.0 | 13.0 | 0.00 | 0.16 | 0.00 | 85 | 1015.1 |
| 20260901011621 | 60 | 281 | 7.0 | 14.0 | 0.00 | 0.16 | 0.00 | 85 | 1015.1 |
| 20260901011057 | 60 | 270 | 8.0 | 14.0 | 0.00 | 0.16 | 0.00 | 86 | 1015.1 |
| 20260901010558 | 60 | 254 | 6.0 | 12.0 | 0.00 | 0.16 | 0.00 | 86 | 1015.1 |
| 20260901010117 | 60 | 280 | 7.0 | 14.0 | 0.00 | 0.16 | 0.00 | 86 | 1015.1 |
| 20260901005558 | 60 | 264 | 7.0 | 14.0 | 0.00 | 0.16 | 0.00 | 86 | 1015.1 |
| 20260901005059 | 60 | 246 | 8.0 | 12.0 | 0.00 | 0.16 | 0.00 | 86 | 1015.1 |
| 20260901004604 | 60 | 244 | 5.0 | 12.0 | 0.00 | 0.16 | 0.00 | 86 | 1015.0 |
| 20260901004057 | 60 | 269 | 7.0 | 13.0 | 0.00 | 0.16 | 0.00 | 86 | 1015.0 |
| 20260901003600 | 60 | 238 | 5.0 | 14.0 | 0.00 | 0.16 | 0.00 | 86 | 1015.0 |
| 20260901003105 | 60 | 258 | 8.0 | 17.0 | 0.00 | 0.16 | 0.00 | 86 | 1014.9 |
| 20260901002601 | 60 | 271 | 8.0 | 17.0 | 0.00 | 0.16 | 0.00 | 86 | 1014.9 |
| 20260901002100 | 60 | 265 | 7.0 | 16.0 | 0.00 | 0.16 | 0.00 | 86 | 1014.9 |
| 20260901001604 | 60 | 267 | 7.0 | 15.0 | 0.00 | 0.16 | 0.00 | 86 | 1014.9 |
| 20260901001057 | 60 | 262 | 7.0 | 15.0 | 0.00 | 0.16 | 0.00 | 86 | 1014.8 |
| 20260901000558 | 60 | 262 | 5.0 | 15.0 | 0.00 | 0.16 | 0.00 | 86 | 1014.8 |
| 20260901000104 | 60 | 284 | 7.0 | 15.0 | 0.00 | 0.16 | 0.00 | 86 | 1014.7 |
| 20260831235558 | 60 | 260 | 5.0 | 14.0 | 0.00 | 0.16 | 0.00 | 86 | 1014.7 |
| 20260831235058 | 60 | 274 | 7.0 | 16.0 | 0.00 | 0.16 | 0.00 | 86 | 1014.6 |
| 20260831234604 | 60 | 302 | 8.0 | 18.0 | 0.00 | 0.16 | 0.00 | 86 | 1014.5 |
| 20260831234057 | 60 | 234 | 8.0 | 18.0 | 0.00 | 0.16 | 0.00 | 86 | 1014.5 |
| 20260831233558 | 60 | 261 | 7.0 | 16.0 | 0.00 | 0.16 | 0.00 | 86 | 1014.4 |
| 20260831233103 | 60 | 240 | 8.0 | 15.0 | 0.00 | 0.16 | 0.00 | 86 | 1014.5 |
| 20260831232559 | 60 | 274 | 8.0 | 14.0 | 0.00 | 0.16 | 0.00 | 86 | 1014.3 |
| 20260831232100 | 60 | 260 | 8.0 | 18.0 | 0.00 | 0.16 | 0.00 | 86 | 1014.2 |
| 20260831231604 | 60 | 258 | 7.0 | 18.0 | 0.00 | 0.16 | 0.00 | 87 | 1014.2 |
| 20260831231057 | 59 | 257 | 10.0 | 18.0 | 0.00 | 0.16 | 0.00 | 87 | 1014.2 |
| 20260831230601 | 59 | 238 | 7.0 | 14.0 | 0.00 | 0.16 | 0.00 | 87 | 1014.1 |
| 20260831230120 | 59 | 262 | 7.0 | 15.0 | 0.00 | 0.16 | 0.00 | 88 | 1014.2 |
| 20260831225601 | 59 | 258 | 8.0 | 15.0 | 0.00 | 0.16 | 0.00 | 88 | 1014.2 |
| 20260831225058 | 59 | 233 | 6.0 | 14.0 | 0.00 | 0.16 | 0.00 | 89 | 1014.1 |
| 20260831224611 | 59 | 238 | 6.0 | 14.0 | 0.00 | 0.16 | 0.00 | 88 | 1014.1 |
| 20260831224101 | 59 | 241 | 8.0 | 14.0 | 0.00 | 0.16 | 0.00 | 88 | 1014.0 |
| 20260831223559 | 59 | 262 | 8.0 | 14.0 | 0.00 | 0.16 | 0.00 | 88 | 1014.0 |
| 20260831223101 | 59 | 238 | 8.0 | 15.0 | 0.00 | 0.16 | 0.00 | 88 | 1014.0 |
| 20260831222556 | 59 | 243 | 9.0 | 17.0 | 0.00 | 0.16 | 0.00 | 88 | 1014.0 |
| 20260831222059 | 59 | 262 | 7.0 | 17.0 | 0.00 | 0.16 | 0.00 | 89 | 1014.0 |
| 20260831221610 | 59 | 256 | 8.0 | 15.0 | 0.00 | 0.16 | 0.00 | 90 | 1013.9 |
| 20260831221057 | 58 | 251 | 7.0 | 15.0 | 0.00 | 0.16 | 0.00 | 90 | 1014.0 |
| 20260831220557 | 58 | 243 | 6.0 | 10.0 | 0.00 | 0.16 | 0.00 | 90 | 1014.0 |
| 20260831220115 | 58 | 247 | 4.0 | 10.0 | 0.00 | 0.16 | 0.00 | 90 | 1013.9 |
| 20260831215556 | 58 | 234 | 4.0 | 10.0 | 0.00 | 0.16 | 0.16 | 90 | 1013.8 |
| 20260831215056 | 58 | 247 | 4.0 | 10.0 | 0.00 | 0.16 | 0.16 | 90 | 1013.8 |
| 20260831214610 | 58 | 244 | 4.0 | 12.0 | 0.00 | 0.16 | 0.16 | 90 | 1013.8 |
| 20260831214055 | 58 | 238 | 6.0 | 12.0 | 0.00 | 0.16 | 0.16 | 90 | 1013.8 |
| 20260831213556 | 58 | 246 | 4.0 | 11.0 | 0.00 | 0.16 | 0.16 | 90 | 1013.7 |
| 20260831213058 | 58 | 225 | 5.0 | 11.0 | 0.00 | 0.16 | 0.16 | 90 | 1013.6 |
| 20260831212556 | 57 | 237 | 5.0 | 10.0 | 0.00 | 0.16 | 0.16 | 90 | 1013.6 |
| 20260831212058 | 57 | 230 | 4.0 | 12.0 | 0.00 | 0.16 | 0.16 | 90 | 1013.6 |
| 20260831211608 | 58 | 239 | 3.0 | 12.0 | 0.00 | 0.16 | 0.16 | 90 | 1013.5 |
| 20260831211056 | 58 | 229 | 4.0 | 10.0 | 0.00 | 0.16 | 0.16 | 89 | 1013.3 |
| 20260831210555 | 58 | 236 | 4.0 | 10.0 | 0.00 | 0.16 | 0.16 | 89 | 1013.3 |
| 20260831210100 | 58 | 248 | 5.0 | 10.0 | 0.00 | 0.16 | 0.16 | 89 | 1013.4 |
| 20260831205556 | 58 | 238 | 5.0 | 11.0 | 0.00 | 0.16 | 0.16 | 89 | 1013.4 |
| 20260831205057 | 58 | 236 | 4.0 | 11.0 | 0.00 | 0.16 | 0.16 | 89 | 1013.4 |
| 20260831204603 | 58 | 261 | 4.0 | 11.0 | 0.00 | 0.16 | 0.16 | 89 | 1013.4 |
| 20260831204056 | 58 | 236 | 5.0 | 11.0 | 0.00 | 0.16 | 0.16 | 89 | 1013.4 |
| 20260831203558 | 58 | 244 | 6.0 | 12.0 | 0.00 | 0.16 | 0.16 | 89 | 1013.3 |
| 20260831203108 | 58 | 227 | 5.0 | 13.0 | 0.00 | 0.16 | 0.16 | 90 | 1013.2 |
| 20260831202555 | 58 | 217 | 7.0 | 13.0 | 0.00 | 0.16 | 0.16 | 90 | 1013.2 |
| 20260831202056 | 58 | 225 | 5.0 | 12.0 | 0.00 | 0.16 | 0.16 | 90 | 1013.2 |
| 20260831201601 | 58 | 242 | 6.0 | 12.0 | 0.00 | 0.16 | 0.16 | 90 | 1013.1 |
| 20260831201100 | 58 | 239 | 5.0 | 10.0 | 0.00 | 0.16 | 0.16 | 90 | 1013.1 |
| 20260831200556 | 58 | 252 | 3.0 | 11.0 | 0.00 | 0.16 | 0.16 | 90 | 1013.0 |
| 20260831200110 | 58 | 243 | 6.0 | 11.0 | 0.00 | 0.16 | 0.16 | 89 | 1013.0 |
| 20260831195559 | 58 | 234 | 6.0 | 11.0 | 0.00 | 0.16 | 0.16 | 89 | 1013.0 |
| 20260831195056 | 59 | 232 | 4.0 | 11.0 | 0.00 | 0.16 | 0.16 | 89 | 1012.9 |
| 20260831194618 | 59 | 213 | 6.0 | 14.0 | 0.00 | 0.16 | 0.16 | 89 | 1012.8 |
| 20260831194056 | 59 | 229 | 7.0 | 14.0 | 0.00 | 0.16 | 0.16 | 89 | 1012.8 |
| 20260831193558 | 59 | 258 | 5.0 | 12.0 | 0.00 | 0.16 | 0.16 | 90 | 1012.8 |
| 20260831193101 | 59 | 236 | 5.0 | 14.0 | 0.00 | 0.16 | 0.16 | 90 | 1012.7 |
| 20260831192558 | 59 | 231 | 6.0 | 14.0 | 0.00 | 0.16 | 0.16 | 90 | 1012.7 |
| 20260831192058 | 59 | 240 | 4.0 | 14.0 | 0.00 | 0.16 | 0.16 | 89 | 1012.7 |
| 20260831191615 | 59 | 229 | 7.0 | 14.0 | 0.00 | 0.16 | 0.16 | 89 | 1012.7 |
| 20260831191100 | 58 | 238 | 7.0 | 17.0 | 0.00 | 0.16 | 0.16 | 89 | 1012.5 |
| 20260831190600 | 58 | 260 | 6.0 | 17.0 | 0.00 | 0.16 | 0.16 | 90 | 1012.4 |
| 20260831190115 | 58 | 248 | 7.0 | 14.0 | 0.00 | 0.16 | 0.16 | 90 | 1012.4 |
| 20260831185558 | 59 | 221 | 7.0 | 14.0 | 0.00 | 0.16 | 0.16 | 90 | 1012.2 |
| 20260831185057 | 59 | 234 | 6.0 | 14.0 | 0.00 | 0.16 | 0.16 | 90 | 1012.2 |
| 20260831184605 | 59 | 248 | 4.0 | 14.0 | 0.00 | 0.16 | 0.16 | 89 | 1012.2 |
| 20260831184057 | 59 | 247 | 6.0 | 11.0 | 0.00 | 0.16 | 0.16 | 90 | 1012.1 |
| 20260831183557 | 59 | 223 | 5.0 | 13.0 | 0.00 | 0.16 | 0.16 | 89 | 1012.1 |
| 20260831183120 | 59 | 237 | 6.0 | 18.0 | 0.00 | 0.16 | 0.16 | 89 | 1012.0 |
| 20260831182558 | 59 | 261 | 7.0 | 18.0 | 0.01 | 0.16 | 0.16 | 89 | 1011.9 |
| 20260831182058 | 59 | 224 | 5.0 | 13.0 | 0.02 | 0.16 | 0.16 | 89 | 1011.9 |
| 20260831181604 | 59 | 226 | 6.0 | 11.0 | 0.03 | 0.16 | 0.16 | 89 | 1011.9 |
| 20260831181057 | 59 | 240 | 4.0 | 11.0 | 0.04 | 0.16 | 0.16 | 90 | 1011.9 |
| 20260831180558 | 60 | 211 | 6.0 | 11.0 | 0.05 | 0.16 | 0.16 | 90 | 1011.9 |
| 20260831180115 | 60 | 236 | 3.0 | 8.0 | 0.06 | 0.16 | 0.16 | 90 | 1011.9 |
| 20260831175557 | 60 | 223 | 3.0 | 9.0 | 0.06 | 0.16 | 0.16 | 90 | 1011.9 |
| 20260831175058 | 60 | 213 | 3.0 | 10.0 | 0.07 | 0.16 | 0.16 | 90 | 1011.9 |
| 20260831174608 | 60 | 242 | 5.0 | 11.0 | 0.07 | 0.16 | 0.16 | 89 | 1011.8 |
| 20260831174100 | 60 | 246 | 6.0 | 11.0 | 0.07 | 0.16 | 0.16 | 89 | 1011.9 |
| 20260831173558 | 60 | 246 | 5.0 | 10.0 | 0.07 | 0.16 | 0.16 | 89 | 1011.8 |
| 20260831173103 | 60 | 256 | 6.0 | 10.0 | 0.07 | 0.15 | 0.15 | 89 | 1011.7 |
| 20260831172557 | 61 | 244 | 4.0 | 12.0 | 0.06 | 0.14 | 0.14 | 88 | 1011.6 |
| 20260831172057 | 61 | 238 | 4.0 | 12.0 | 0.05 | 0.14 | 0.14 | 87 | 1011.6 |
| 20260831171605 | 61 | 222 | 7.0 | 16.0 | 0.03 | 0.12 | 0.12 | 87 | 1011.6 |
| 20260831171057 | 61 | 238 | 7.0 | 16.0 | 0.03 | 0.11 | 0.11 | 86 | 1011.6 |
| 20260831170557 | 62 | 221 | 6.0 | 19.0 | 0.02 | 0.11 | 0.11 | 86 | 1011.6 |
| 20260831170107 | 62 | 232 | 9.0 | 20.0 | 0.01 | 0.10 | 0.10 | 85 | 1011.8 |
| 20260831165600 | 62 | 238 | 11.0 | 20.0 | 0.01 | 0.10 | 0.10 | 85 | 1011.8 |
| 20260831165057 | 62 | 244 | 7.0 | 16.0 | 0.00 | 0.08 | 0.08 | 85 | 1011.8 |
| 20260831164559 | 62 | 240 | 7.0 | 16.0 | 0.00 | 0.08 | 0.08 | 85 | 1011.6 |
| 20260831164057 | 62 | 221 | 7.0 | 14.0 | 0.00 | 0.08 | 0.08 | 85 | 1011.6 |
| 20260831163557 | 62 | 232 | 8.0 | 14.0 | 0.00 | 0.08 | 0.08 | 85 | 1011.4 |
| 20260831163103 | 62 | 222 | 3.0 | 8.0 | 0.00 | 0.08 | 0.08 | 86 | 1011.4 |
| 20260831162558 | 62 | 0 | 3.0 | 11.0 | 0.00 | 0.08 | 0.08 | 86 | 1011.3 |
| 20260831162057 | 62 | 198 | 5.0 | 11.0 | 0.00 | 0.08 | 0.08 | 85 | 1011.2 |
| 20260831161608 | 63 | 204 | 5.0 | 11.0 | 0.00 | 0.08 | 0.08 | 85 | 1011.2 |
| 20260831161057 | 63 | 203 | 4.0 | 10.0 | 0.00 | 0.08 | 0.08 | 85 | 1011.0 |
| 20260831160601 | 63 | 215 | 5.0 | 10.0 | 0.00 | 0.08 | 0.08 | 85 | 1011.0 |
| 20260831160109 | 63 | 224 | 5.0 | 10.0 | 0.00 | 0.08 | 0.08 | 85 | 1011.1 |
| 20260831155558 | 63 | 230 | 3.0 | 10.0 | 0.00 | 0.08 | 0.08 | 85 | 1011.0 |
| 20260831155102 | 62 | 238 | 4.0 | 12.0 | 0.00 | 0.08 | 0.08 | 86 | 1011.0 |
| 20260831154629 | 62 | 223 | 5.0 | 12.0 | 0.01 | 0.08 | 0.08 | 85 | 1011.0 |
| 20260831154058 | 62 | 225 | 5.0 | 12.0 | 0.06 | 0.08 | 0.08 | 85 | 1011.0 |
| 20260831153557 | 62 | 225 | 5.0 | 12.0 | 0.06 | 0.08 | 0.08 | 85 | 1011.0 |
| 20260831153059 | 62 | 227 | 5.0 | 12.0 | 0.06 | 0.08 | 0.08 | 85 | 1011.1 |
| 20260831152558 | 62 | 239 | 4.0 | 10.0 | 0.06 | 0.08 | 0.08 | 85 | 1011.0 |
| 20260831152057 | 62 | 236 | 5.0 | 10.0 | 0.06 | 0.08 | 0.08 | 84 | 1011.0 |
| 20260831151605 | 63 | 253 | 2.0 | 9.0 | 0.06 | 0.08 | 0.08 | 85 | 1010.9 |
| 20260831151057 | 63 | 223 | 4.0 | 11.0 | 0.06 | 0.08 | 0.08 | 85 | 1010.9 |
| 20260831150557 | 63 | 229 | 6.0 | 11.0 | 0.06 | 0.08 | 0.08 | 82 | 1011.1 |
| 20260831150112 | 63 | 234 | 5.0 | 16.0 | 0.05 | 0.07 | 0.07 | 80 | 1011.2 |
| 20260831145556 | 64 | 239 | 6.0 | 20.0 | 0.05 | 0.07 | 0.07 | 77 | 1011.0 |
| 20260831145058 | 65 | 250 | 9.0 | 36.0 | 0.05 | 0.07 | 0.07 | 75 | 1011.1 |
| 20260831144606 | 67 | 244 | 15.0 | 36.0 | 0.04 | 0.07 | 0.07 | 70 | 1010.9 |
| 20260831144057 | 70 | 236 | 15.0 | 36.0 | 0.00 | 0.02 | 0.02 | 62 | 1010.9 |
| 20260831143557 | 71 | 274 | 5.0 | 14.0 | 0.00 | 0.02 | 0.02 | 62 | 1010.4 |
| 20260831143105 | 71 | 241 | 7.0 | 15.0 | 0.00 | 0.02 | 0.02 | 61 | 1010.3 |
| 20260831142558 | 71 | 259 | 5.0 | 15.0 | 0.00 | 0.02 | 0.02 | 60 | 1010.4 |
| 20260831142058 | 72 | 238 | 7.0 | 16.0 | 0.00 | 0.02 | 0.02 | 59 | 1010.4 |
| 20260831141614 | 72 | 243 | 9.0 | 16.0 | 0.00 | 0.02 | 0.02 | 59 | 1010.4 |
| 20260831141059 | 73 | 256 | 6.0 | 16.0 | 0.00 | 0.02 | 0.02 | 61 | 1010.2 |
| 20260831140557 | 73 | 240 | 6.0 | 16.0 | 0.00 | 0.02 | 0.02 | 62 | 1010.3 |
| 20260831140105 | 73 | 247 | 6.0 | 17.0 | 0.02 | 0.02 | 0.02 | 63 | 1010.2 |
| 20260831135557 | 73 | 239 | 9.0 | 17.0 | 0.02 | 0.02 | 0.02 | 66 | 1010.2 |
| 20260831135057 | 72 | 273 | 4.0 | 13.0 | 0.02 | 0.02 | 0.02 | 70 | 1010.2 |
| 20260831134606 | 71 | 243 | 8.0 | 13.0 | 0.02 | 0.02 | 0.02 | 69 | 1010.2 |
| 20260831134056 | 70 | 242 | 5.0 | 15.0 | 0.02 | 0.02 | 0.02 | 71 | 1010.3 |
| 20260831133558 | 69 | 261 | 5.0 | 15.0 | 0.02 | 0.02 | 0.02 | 73 | 1010.3 |
| 20260831133106 | 69 | 248 | 7.0 | 15.0 | 0.02 | 0.02 | 0.02 | 74 | 1010.2 |
| 20260831132557 | 68 | 234 | 4.0 | 8.0 | 0.02 | 0.02 | 0.02 | 77 | 1010.2 |
| 20260831132057 | 67 | 255 | 4.0 | 14.0 | 0.02 | 0.02 | 0.02 | 80 | 1010.3 |
| 20260831131606 | 67 | 243 | 5.0 | 14.0 | 0.02 | 0.02 | 0.02 | 76 | 1010.4 |
| 20260831131057 | 68 | 253 | 7.0 | 26.0 | 0.02 | 0.02 | 0.02 | 72 | 1010.4 |
| 20260831130557 | 70 | 263 | 10.0 | 26.0 | 0.02 | 0.02 | 0.02 | 71 | 1010.4 |
| 20260831130104 | 72 | 238 | 15.0 | 25.0 | 0.00 | 0.00 | 0.00 | 62 | 1010.6 |
| 20260831125558 | 73 | 360 | 12.0 | 20.0 | 0.00 | 0.00 | 0.00 | 56 | 1010.3 |
| 20260831125056 | 74 | 360 | 9.0 | 19.0 | 0.00 | 0.00 | 0.00 | 55 | 1010.1 |
| 20260831124559 | 75 | 360 | 7.0 | 19.0 | 0.00 | 0.00 | 0.00 | 53 | 1010.1 |
| 20260831124057 | 76 | 223 | 6.0 | 22.0 | 0.00 | 0.00 | 0.00 | 51 | 1010.1 |
| 20260831123556 | 76 | 360 | 8.0 | 22.0 | 0.00 | 0.00 | 0.00 | 49 | 1010.0 |
| 20260831123110 | 76 | 360 | 10.0 | 21.0 | 0.00 | 0.00 | 0.00 | 50 | 1010.0 |
| 20260831122559 | 76 | 360 | 11.0 | 24.0 | 0.00 | 0.00 | 0.00 | 50 | 1010.0 |
| 20260831122057 | 75 | 222 | 11.0 | 24.0 | 0.00 | 0.00 | 0.00 | 54 | 1010.0 |
| 20260831121609 | 74 | 360 | 11.0 | 21.0 | 0.00 | 0.00 | 0.00 | 54 | 1010.0 |
| 20260831121059 | 74 | 360 | 8.0 | 19.0 | 0.00 | 0.00 | 0.00 | 54 | 1009.9 |
| 20260831120556 | 74 | 219 | 10.0 | 19.0 | 0.00 | 0.00 | 0.00 | 54 | 1010.1 |
| 20260831120124 | 74 | 229 | 9.0 | 22.0 | 0.00 | 0.00 | 0.00 | 55 | 1010.2 |
| 20260831115557 | 74 | 360 | 10.0 | 22.0 | 0.00 | 0.00 | 0.00 | 54 | 1010.1 |
| 20260831115059 | 75 | 249 | 11.0 | 22.0 | 0.00 | 0.00 | 0.00 | 54 | 1010.1 |
| 20260831114600 | 75 | 231 | 10.0 | 22.0 | 0.00 | 0.00 | 0.00 | 54 | 1010.0 |
| 20260831114057 | 76 | 360 | 9.0 | 22.0 | 0.00 | 0.00 | 0.00 | 53 | 1010.1 |
| 20260831113557 | 77 | 200 | 10.0 | 21.0 | 0.00 | 0.00 | 0.00 | 52 | 1010.1 |
| 20260831113107 | 76 | 180 | 11.0 | 21.0 | 0.00 | 0.00 | 0.00 | 51 | 1010.2 |
| 20260831112600 | 76 | 360 | 8.0 | 21.0 | 0.00 | 0.00 | 0.00 | 55 | 1010.3 |
| 20260831112058 | 75 | 360 | 10.0 | 21.0 | 0.00 | 0.00 | 0.00 | 56 | 1010.3 |
| 20260831111614 | 75 | 360 | 10.0 | 20.0 | 0.00 | 0.00 | 0.00 | 56 | 1010.3 |
| 20260831111057 | 74 | 360 | 8.0 | 18.0 | 0.00 | 0.00 | 0.00 | 59 | 1010.3 |
| 20260831110557 | 73 | 360 | 6.0 | 15.0 | 0.00 | 0.00 | 0.00 | 58 | 1010.3 |
| 20260831110104 | 73 | 360 | 7.0 | 17.0 | 0.00 | 0.00 | 0.00 | 58 | 1010.4 |
| 20260831105558 | 73 | 232 | 9.0 | 17.0 | 0.00 | 0.00 | 0.00 | 58 | 1010.5 |
| 20260831105100 | 73 | 360 | 10.0 | 17.0 | 0.00 | 0.00 | 0.00 | 59 | 1010.5 |
| 20260831104604 | 73 | 360 | 7.0 | 16.0 | 0.00 | 0.00 | 0.00 | 59 | 1010.6 |
| 20260831104059 | 73 | 360 | 7.0 | 16.0 | 0.00 | 0.00 | 0.00 | 58 | 1010.6 |
| 20260831103558 | 73 | 360 | 10.0 | 17.0 | 0.00 | 0.00 | 0.00 | 58 | 1010.6 |
| 20260831103108 | 73 | 360 | 10.0 | 19.0 | 0.00 | 0.00 | 0.00 | 60 | 1010.6 |
| 20260831102557 | 72 | 360 | 10.0 | 19.0 | 0.00 | 0.00 | 0.00 | 60 | 1010.6 |
| 20260831102057 | 72 | 240 | 8.0 | 16.0 | 0.00 | 0.00 | 0.00 | 60 | 1010.7 |
| 20260831101606 | 73 | 360 | 7.0 | 16.0 | 0.00 | 0.00 | 0.00 | 60 | 1010.7 |
| 20260831101058 | 73 | 259 | 7.0 | 18.0 | 0.00 | 0.00 | 0.00 | 60 | 1010.7 |
| 20260831100559 | 73 | 252 | 11.0 | 18.0 | 0.00 | 0.00 | 0.00 | 61 | 1010.8 |
| 20260831100114 | 73 | 254 | 9.0 | 20.0 | 0.00 | 0.00 | 0.00 | 60 | 1010.7 |
| 20260831095559 | 74 | 192 | 10.0 | 20.0 | 0.00 | 0.00 | 0.00 | 60 | 1010.9 |
| 20260831095056 | 74 | 245 | 10.0 | 20.0 | 0.00 | 0.00 | 0.00 | 60 | 1010.9 |
| 20260831094606 | 74 | 360 | 11.0 | 19.0 | 0.00 | 0.00 | 0.00 | 62 | 1010.8 |
| 20260831094057 | 73 | 360 | 8.0 | 19.0 | 0.00 | 0.00 | 0.00 | 65 | 1010.9 |
| 20260831093558 | 73 | 360 | 9.0 | 24.0 | 0.00 | 0.00 | 0.00 | 63 | 1010.9 |
| 20260831093109 | 72 | 360 | 10.0 | 24.0 | 0.00 | 0.00 | 0.00 | 65 | 1010.9 |
| 20260831092558 | 72 | 360 | 8.0 | 23.0 | 0.00 | 0.00 | 0.00 | 65 | 1010.9 |
| 20260831092058 | 72 | 266 | 10.0 | 23.0 | 0.00 | 0.00 | 0.00 | 66 | 1011.0 |
| 20260831091605 | 71 | 360 | 4.0 | 19.0 | 0.00 | 0.00 | 0.00 | 69 | 1011.0 |
| 20260831091059 | 71 | 360 | 13.0 | 19.0 | 0.00 | 0.00 | 0.00 | 68 | 1010.9 |
| 20260831090557 | 71 | 360 | 11.0 | 19.0 | 0.00 | 0.00 | 0.00 | 70 | 1011.0 |
| 20260831090109 | 70 | 360 | 8.0 | 19.0 | 0.00 | 0.00 | 0.00 | 71 | 1010.9 |
| 20260831085559 | 69 | 360 | 7.0 | 17.0 | 0.00 | 0.00 | 0.00 | 73 | 1010.9 |
| 20260831085058 | 68 | 360 | 9.0 | 17.0 | 0.00 | 0.00 | 0.00 | 74 | 1010.8 |
| 20260831084609 | 68 | 241 | 8.0 | 17.0 | 0.00 | 0.00 | 0.00 | 73 | 1010.8 |
| 20260831084057 | 68 | 225 | 7.0 | 18.0 | 0.00 | 0.00 | 0.00 | 73 | 1010.8 |
| 20260831083559 | 68 | 246 | 9.0 | 18.0 | 0.00 | 0.00 | 0.00 | 73 | 1010.8 |
| 20260831083108 | 68 | 244 | 7.0 | 17.0 | 0.00 | 0.00 | 0.00 | 73 | 1010.9 |
| 20260831082557 | 68 | 291 | 9.0 | 17.0 | 0.00 | 0.00 | 0.00 | 73 | 1011.0 |
| 20260831082058 | 69 | 241 | 8.0 | 14.0 | 0.00 | 0.00 | 0.00 | 73 | 1011.0 |
| 20260831081605 | 69 | 260 | 5.0 | 12.0 | 0.00 | 0.00 | 0.00 | 74 | 1011.0 |
| 20260831081057 | 68 | 249 | 6.0 | 12.0 | 0.00 | 0.00 | 0.00 | 74 | 1010.9 |
| 20260831080556 | 68 | 245 | 7.0 | 14.0 | 0.00 | 0.00 | 0.00 | 73 | 1010.9 |
| 20260831080137 | 68 | 249 | 7.0 | 14.0 | 0.00 | 0.00 | 0.00 | 74 | 1010.9 |
| 20260831075557 | 68 | 210 | 5.0 | 13.0 | 0.00 | 0.00 | 0.00 | 76 | 1010.9 |
| 20260831075057 | 67 | 240 | 5.0 | 13.0 | 0.00 | 0.00 | 0.00 | 77 | 1010.9 |
| 20260831074601 | 67 | 217 | 4.0 | 14.0 | 0.00 | 0.00 | 0.00 | 76 | 1010.9 |
| 20260831074058 | 67 | 225 | 9.0 | 15.0 | 0.00 | 0.00 | 0.00 | 76 | 1010.9 |
| 20260831073557 | 67 | 360 | 7.0 | 15.0 | 0.00 | 0.00 | 0.00 | 75 | 1010.9 |
| 20260831073117 | 67 | 235 | 9.0 | 15.0 | 0.00 | 0.00 | 0.00 | 74 | 1010.9 |
| 20260831072558 | 67 | 360 | 9.0 | 15.0 | 0.00 | 0.00 | 0.00 | 74 | 1010.8 |
| 20260831072056 | 68 | 213 | 9.0 | 15.0 | 0.00 | 0.00 | 0.00 | 74 | 1010.8 |
| 20260831071616 | 68 | 215 | 8.0 | 17.0 | 0.00 | 0.00 | 0.00 | 73 | 1010.7 |
| 20260831071059 | 68 | 212 | 8.0 | 17.0 | 0.00 | 0.00 | 0.00 | 73 | 1010.8 |
| 20260831070557 | 68 | 234 | 7.0 | 14.0 | 0.00 | 0.00 | 0.00 | 74 | 1010.8 |
| 20260831070112 | 68 | 229 | 6.0 | 15.0 | 0.00 | 0.00 | 0.00 | 75 | 1010.8 |
| 20260831065558 | 67 | 237 | 5.0 | 15.0 | 0.00 | 0.00 | 0.00 | 76 | 1010.8 |
| 20260831065056 | 67 | 245 | 6.0 | 13.0 | 0.00 | 0.00 | 0.00 | 75 | 1010.9 |
| 20260831064608 | 66 | 252 | 6.0 | 13.0 | 0.00 | 0.00 | 0.00 | 76 | 1010.8 |
| 20260831064055 | 66 | 212 | 7.0 | 13.0 | 0.00 | 0.00 | 0.00 | 77 | 1010.7 |
| 20260831063559 | 65 | 240 | 5.0 | 11.0 | 0.00 | 0.00 | 0.00 | 78 | 1010.7 |
| 20260831063111 | 65 | 250 | 4.0 | 10.0 | 0.00 | 0.00 | 0.00 | 79 | 1010.6 |
| 20260831062557 | 64 | 201 | 3.0 | 10.0 | 0.00 | 0.00 | 0.00 | 80 | 1010.5 |
| 20260831062056 | 63 | 211 | 4.0 | 10.0 | 0.00 | 0.00 | 0.00 | 80 | 1010.5 |
| 20260831061608 | 63 | 196 | 4.0 | 10.0 | 0.00 | 0.00 | 0.00 | 81 | 1010.4 |
| 20260831061059 | 63 | 360 | 4.0 | 10.0 | 0.00 | 0.00 | 0.00 | 81 | 1010.5 |
| 20260831060556 | 62 | 217 | 4.0 | 10.0 | 0.00 | 0.00 | 0.00 | 82 | 1010.4 |
| 20260831060110 | 62 | 215 | 5.0 | 10.0 | 0.00 | 0.00 | 0.00 | 82 | 1010.3 |
| 20260831055556 | 61 | 360 | 5.0 | 10.0 | 0.00 | 0.00 | 0.00 | 82 | 1010.3 |
| 20260831055056 | 61 | 360 | 5.0 | 15.0 | 0.00 | 0.00 | 0.00 | 83 | 1010.2 |
| 20260831054627 | 60 | 360 | 5.0 | 15.0 | 0.00 | 0.00 | 0.00 | 83 | 1010.1 |
| 20260831054056 | 60 | 360 | 2.0 | 6.0 | 0.00 | 0.00 | 0.00 | 83 | 1010.1 |
| 20260831053556 | 60 | 360 | 2.0 | 5.0 | 0.00 | 0.00 | 0.00 | 83 | 1010.2 |
| 20260831053109 | 60 | 360 | 2.0 | 5.0 | 0.00 | 0.00 | 0.00 | 83 | 1010.2 |
| 20260831052556 | 60 | 360 | 2.0 | 5.0 | 0.00 | 0.00 | 0.00 | 83 | 1010.3 |
| 20260831052059 | 60 | 360 | 2.0 | 8.0 | 0.00 | 0.00 | 0.00 | 82 | 1010.3 |
| 20260831051608 | 60 | 360 | 3.0 | 8.0 | 0.00 | 0.00 | 0.00 | 82 | 1010.2 |
| 20260831051058 | 60 | 360 | 3.0 | 5.0 | 0.00 | 0.00 | 0.00 | 82 | 1010.3 |
| 20260831050557 | 60 | 360 | 2.0 | 5.0 | 0.00 | 0.00 | 0.00 | 82 | 1010.2 |
| 20260831050110 | 60 | 360 | 2.0 | 4.0 | 0.00 | 0.00 | 0.00 | 81 | 1010.2 |
| 20260831045559 | 60 | 360 | 1.0 | 4.0 | 0.00 | 0.03 | 0.00 | 81 | 1010.1 |
| 20260831045056 | 60 | 360 | 2.0 | 8.0 | 0.00 | 0.03 | 0.00 | 81 | 1010.0 |
| 20260831044607 | 60 | 360 | 2.0 | 8.0 | 0.00 | 0.03 | 0.00 | 81 | 1009.9 |
| 20260831044056 | 60 | 360 | 3.0 | 8.0 | 0.00 | 0.03 | 0.00 | 80 | 1009.9 |
| 20260831043558 | 61 | 360 | 2.0 | 5.0 | 0.00 | 0.03 | 0.00 | 80 | 1010.0 |
| 20260831043106 | 61 | 360 | 2.0 | 5.0 | 0.00 | 0.03 | 0.00 | 80 | 1010.0 |
| 20260831042558 | 61 | 360 | 1.0 | 5.0 | 0.00 | 0.03 | 0.00 | 79 | 1009.9 |
| 20260831042056 | 61 | 360 | 1.0 | 5.0 | 0.00 | 0.03 | 0.00 | 79 | 1009.8 |
| 20260831041611 | 61 | 360 | 2.0 | 9.0 | 0.00 | 0.03 | 0.00 | 79 | 1009.8 |
| 20260831041059 | 61 | 360 | 1.0 | 9.0 | 0.00 | 0.03 | 0.00 | 79 | 1009.9 |
| 20260831040555 | 61 | 360 | 3.0 | 9.0 | 0.00 | 0.03 | 0.00 | 79 | 1010.1 |
| 20260831040111 | 61 | 360 | 3.0 | 6.0 | 0.00 | 0.03 | 0.00 | 78 | 1010.0 |
| 20260831035559 | 61 | 360 | 3.0 | 8.0 | 0.00 | 0.03 | 0.00 | 78 | 1009.9 |
| 20260831035056 | 61 | 360 | 3.0 | 8.0 | 0.00 | 0.03 | 0.00 | 78 | 1009.9 |
| 20260831034604 | 61 | 360 | 3.0 | 8.0 | 0.00 | 0.03 | 0.00 | 78 | 1009.8 |
| 20260831034057 | 61 | 360 | 3.0 | 6.0 | 0.00 | 0.03 | 0.00 | 78 | 1010.0 |
| 20260831033559 | 61 | 360 | 2.0 | 8.0 | 0.00 | 0.03 | 0.00 | 78 | 1010.0 |
| 20260831033059 | 61 | 360 | 3.0 | 8.0 | 0.00 | 0.03 | 0.00 | 78 | 1010.2 |
| 20260831032556 | 61 | 360 | 2.0 | 6.0 | 0.00 | 0.03 | 0.00 | 78 | 1010.2 |
| 20260831032057 | 61 | 360 | 2.0 | 8.0 | 0.00 | 0.03 | 0.00 | 78 | 1010.3 |
| 20260831031607 | 61 | 360 | 3.0 | 8.0 | 0.00 | 0.03 | 0.00 | 78 | 1010.3 |
| 20260831031057 | 61 | 360 | 3.0 | 9.0 | 0.00 | 0.03 | 0.00 | 78 | 1010.2 |
| 20260831030556 | 61 | 360 | 3.0 | 9.0 | 0.00 | 0.03 | 0.00 | 78 | 1010.1 |
| 20260831025557 | 61 | 360 | 4.0 | 8.0 | 0.00 | 0.03 | 0.00 | 79 | 1010.2 |
| 20260831025057 | 61 | 360 | 3.0 | 6.0 | 0.00 | 0.03 | 0.00 | 79 | 1010.2 |
| 20260831024606 | 61 | 360 | 3.0 | 6.0 | 0.00 | 0.03 | 0.00 | 79 | 1010.6 |